Volver al catálogo

CAT 3

ActivoCienciaHEO
NORAD 12546·PAYLOAD·🇪🇺 EU

Lanzado Jun 19, 1981 desde Guiana Space Centre

Loading…

Próximos Pases (próximas 24 horas)

TLE

EnvejeciendoSource: Space-Track

Época: Aug 30, 2026, 21:49 UTC

1 12546U 81057C   26242.90967585  .00009699  00000-0  61089-3 0  9994
2 12546  10.1846 108.7256 5720208 264.2356  31.6103  4.52260374418449

Sigue CAT 3 en tiempo real con AllMySat

Download on the App Store